STARLINK-3083, 49158

Orbit data source: Space-Track

STARLINK-3083, 49158 is a payload satellite owned by SpaceX/Seattle (US) in LEO that was launched on Tue, 14 Sep 2021 UTC via an FALCON 9 launch vehicle from the Air Force Western Test Range (AFWTR). Payload-class satellites include a variety of spacecraft equipped with specific instruments for various scientific and technological missions. These include communications satellites like Starlink; space stations such as the ISS; scientific satellites like the Hubble; Earth observation satellites from companies like Planet Labs, Umbra, and HawkEye 360; GPS; miniature CubeSats for education and research; and military/defense satellites.

Loading next visibility...
Identifier
49158, 2021-082AE
Orbit
LEO
Country
Flag of USUS
Related business
Manufacturer
SpaceX/Seattle
Mission
Partially operational Commercial Communications
Bus & Motor
STARLINK, Unknown motor
Mass
297 kg wet, ~275 kg dry
Launch date (UTC)
2021-09-14 (4 years ago)
Launch vehicle
FALCON 9
Launch site
Air Force Western Test Range (AFWTR)
Object type
Payload
Rocket body
Debris
Shape & HBR
Box + 1 Pan, 10.1 m
Radar Cross Section
13.562 m², Large (>1 m²)

Expand to show TLE details & history
Last TLE update: 1 day ago

TLE from 1 day ago
0 STARLINK-3083
1 49158U 21082AE  25309.97984281  .00074013  00000-0  13693-2 0  9996
2 49158  69.9736 154.9688 0002535 331.8130  28.2917 15.48658638230800
Epoch: 2025-11-05T23:30Z
TLE epoch observation values (Epoch: 2025-11-05T23:30:58.418Z)
Latitude
-0.00005°
Longitude
116.78064°
Altitude
421.607 km
Speed
7.659 km/s
True Right ascension
10h 19m 52s
True Declination
0° 00' 00"
Sunlit
Object was in daylight at epoch
Visualization orbit readout
Latitude
Unknown
Longitude
Unknown
Altitude
Unknown
Speed
Unknown
Apparent Right ascension
Unknown
Apparent Declination
Unknown
Sunlit
N/A
Visualization observer readout
Local Sidereal Time
21:21:10
Azimuth
Unknown
Elevation
Unknown
Doppler factor
Unknown
Orbital elements
Apogee altitude
420.277 km
Perigee altitude
416.831 km
Semi-major axis
6,796.691 km
Eccentricity
0.00025
Inclination
69.9736°
RAAN
154.9688°
Arg. of periapsis
331.813°
True anomaly
28.30547°
Mean anomaly
28.2917°
Eccentric anomaly
28.29859°
Mean motion
3.87344 °/min
Orbital period
92.94 mins
BSTAR
0.0013693
Loading maneuver chart data...
Computing Atmospheric mass density...

Documentation

Showing up to 5 results
|